Regional Weather Roundup
Issued by NWS

Home | Current Version | Previous Version | Text Only | Print | Product List | Glossary Off
Versions: 1 2 3 4 5 6 7 8 9 10 11 12 13 14 15 16 17 18 19 20 21 22 23 24 25 26 27 28 29 30 31 32 33 34 35 36 37 38 39 40 41 42 43 44 45 46 47 48 49 50

000
ASUS43 KFSD 271410
RWRSD

WEATHER ROUNDUP FOR SOUTH DAKOTA
NATIONAL WEATHER SERVICE SIOUX FALLS SD
900 AM CDT MON MAR 27 2017

NOTE: "FAIR" INDICATES FEW OR NO CLOUDS BELOW 12,000 FEET WITH NO
SIGNIFICANT WEATHER AND/OR OBSTRUCTIONS TO VISIBILITY.


SDZ001>005-009-010-012>017-271500-
NORTHWEST AND NORTH CENTRAL SOUTH DAKOTA

CITY           SKY/WX    TMP DP  RH WIND       PRES   REMARKS
BUFFALO          N/A     40  36  86 E3        29.83R
FAITH            N/A     36  36 100 MISG      29.90F
MOBRIDGE       MOSUNNY   35  31  85 S6        29.91S FOG
$$

SDZ012>016-024>037-041>051-057-063-072>074-271500-
SOUTHWEST AND SOUTH CENTRAL SOUTH DAKOTA

CITY           SKY/WX    TMP DP  RH WIND       PRES   REMARKS
RAPID CTY ARPT FOG       28  27  96 CALM      29.89R VSB 1/4
PIERRE         CLOUDY    40  39  97 CALM      29.93S
CUSTER         CLOUDY    31  28  89 CALM      29.88R
ELLSWORTH AFB  SUNNY     33  33 100 SW3       29.88R
PHILIP         CLOUDY    41  39  93 SE5       29.92S
PINE RIDGE     SUNNY     36  35  96 CALM      29.90S
SPEARFISH      FAIR      36  32  87 CALM      29.88R
WINNER         FAIR      36  33  89 S5        29.95F FOG
$$

SDZ004>011-016>023-039-040-271500-
NORTHEAST SOUTH DAKOTA

CITY           SKY/WX    TMP DP  RH WIND       PRES   REMARKS
ABERDEEN       CLOUDY    37  34  89 SE7       29.96S
WATERTOWN      CLOUDY    38  36  92 CALM      29.95S
BROOKINGS      CLOUDY    35  34  96 MISG      29.96R FOG
SISSETON         N/A     38  37  97 CALM      29.97R
$$

SDZ017-020-022-023-036>040-048>070-271500-
SOUTHEAST SOUTH DAKOTA

CITY           SKY/WX    TMP DP  RH WIND       PRES   REMARKS
SIOUX FALLS    CLOUDY    43  39  86 CALM      29.98R
HURON          CLOUDY    39  38  96 S5        29.97R
CHAMBERLAIN    FOG       33  33 100 CALM      29.97R VSB 3/4
MITCHELL       CLOUDY    34  34 100 SW5       29.99R FOG     WCI  30
YANKTON        CLOUDY    43  39  87 E5        29.98R
$$

ABBREVIATIONS USED IN REMARKS
   TC - TEMPERATURE IN CELSIUS
  WCI - WIND CHILL INDEX
   HX - HEAT INDEX
  VSB - VISIBILITY




USA.gov is the U.S. government's official web portal to all federal, state and local government web resources and services.